EW9733 Weather Reports


time (UTC)temp
F
wind
direction
speed
knots
gust
knots
rain 1hr
in
rain 24hr
in
rain mn
in
humidity
%
barometer
mb
20240418171543 62 23 0.9 10.4 0.00 0.00 0.00 76 1015.3
20240418170031 63 84 0.9 7.8 0.00 0.00 0.00 80 1015.2
20240418164529 62 355 0.9 7.0 0.00 0.00 0.00 79 1015.0
20240418163034 62 350 2.6 7.0 0.00 0.00 0.00 78 1014.9
20240418161522 61 248 1.7 7.8 0.00 0.00 0.00 82 1014.7
20240418160019 60 57 0.9 8.7 0.00 0.00 0.00 85 1014.7
20240418154522 60 288 0.9 7.8 0.00 0.00 0.00 85 1014.7
20240418153017 60 9 1.7 8.7 0.00 0.00 0.00 85 1014.7
20240418151513 59 355 0.9 7.8 0.00 0.00 0.00 86 1014.7
20240418150012 59 130 0.0 3.5 0.00 0.00 0.00 89 1014.4
20240418144510 57 24 0.0 6.1 0.00 0.00 0.00 92 1014.5
20240418143008 57 326 2.6 7.0 0.00 0.00 0.00 93 1014.5
20240418141505 56 196 0.9 4.3 0.00 0.00 0.00 93 1014.3
20240418140005 55 91 0.9 4.3 0.00 0.00 0.00 94 1014.3
20240418134501 55 51 0.9 4.3 0.00 0.00 0.00 94 1014.1
20240418133103 55 45 1.7 7.0 0.00 0.00 0.00 94 1013.8
20240418131604 55 68 0.9 7.0 0.00 0.00 0.00 94 1013.8
20240418130056 55 250 0.9 4.3 0.00 0.00 0.00 94 1013.7
20240418124557 55 19 0.0 5.2 0.00 0.00 0.00 95 1013.7
20240418123052 55 46 0.0 7.0 0.00 0.00 0.00 94 1013.8
20240418121549 55 330 0.9 4.3 0.00 0.00 0.00 95 1013.6
20240418120047 55 311 0.0 2.6 0.00 0.00 0.00 95 1013.3
20240418114544 55 19 0.0 2.6 0.00 0.00 0.00 94 1013.0
20240418113049 55 173 0.0 2.6 0.00 0.00 0.00 94 1012.9
20240418111548 56 148 0.0 2.6 0.00 0.00 0.00 94 1012.7
20240418110116 56 271 0.0 2.6 0.00 0.00 0.00 94 1012.5
20240418104536 56 231 0.0 4.3 0.00 0.00 0.00 94 1012.1
20240418103032 56 333 0.0 2.6 0.00 0.00 0.00 94 1011.5
20240418101534 56 348 0.0 2.6 0.00 0.00 0.00 94 1011.3
20240418100028 56 76 0.0 3.5 0.00 0.00 0.00 94 1010.9
20240418094527 56 76 0.9 5.2 0.00 0.00 0.00 94 1010.7
20240418093038 56 32 0.0 2.6 0.00 0.00 0.00 94 1010.5
20240418091525 56 227 0.9 2.6 0.00 0.00 0.00 94 1010.7
20240418090027 56 46 0.0 5.2 0.00 0.00 0.00 94 1010.5
20240418084533 56 24 0.0 7.8 0.00 0.00 0.00 94 1010.2
20240418083038 56 55 0.9 7.0 0.00 0.00 0.00 93 1010.0
20240418081527 55 22 0.0 1.7 0.00 0.00 0.00 93 1009.9
20240418080023 55 46 0.0 1.7 0.00 0.00 0.00 93 1009.7
20240418074527 55 98 0.0 0.0 0.00 0.00 0.00 92 1009.8
20240418073030 55 99 0.0 0.0 0.00 0.00 0.00 92 1009.3
20240418071532 54 100 0.0 0.0 0.00 0.00 0.00 92 1009.2
20240418070036 55 100 0.0 0.0 0.00 0.00 0.00 91 1009.1
20240418064518 55 100 0.0 0.0 0.00 0.00 0.00 91 1009.2
20240418063018 55 100 0.0 0.0 0.00 0.00 0.00 91 1009.4
20240418061517 55 100 0.0 0.0 0.00 0.00 0.00 91 1009.4
20240418060012 55 100 0.0 0.0 0.00 0.00 0.00 91 1009.6
20240418054511 56 100 0.0 0.0 0.00 0.00 0.00 91 1009.8
20240418053008 56 100 0.0 0.0 0.00 0.00 0.00 91 1009.9
20240418051511 56 100 0.0 0.0 0.00 0.00 0.00 91 1009.9
20240418050007 57 100 0.0 0.0 0.00 0.00 0.00 91 1010.3
20240418044501 57 100 0.0 0.0 0.00 0.00 0.00 91 1010.5
20240418043100 58 101 0.0 2.6 0.00 0.00 0.00 91 1010.8
20240418043002 58 101 0.0 2.6 0.00 0.00 0.00 91 1010.8
20240418041558 59 101 0.0 2.6 0.00 0.00 0.00 92 1010.9
20240418040057 59 111 0.0 0.0 0.00 0.00 0.00 92 1011.0
20240418034556 59 111 0.0 0.0 0.00 0.00 0.00 92 1011.0
20240418033054 59 111 0.0 0.9 0.00 0.00 0.00 92 1010.8
20240418031602 59 111 0.0 0.9 0.00 0.00 0.00 92 1011.0
20240418030051 59 111 0.0 2.6 0.00 0.00 0.00 92 1011.1
20240418024602 59 111 0.0 0.9 0.00 0.00 0.00 91 1011.5
20240418023049 59 111 0.0 0.9 0.00 0.00 0.00 91 1011.9
20240418021557 59 111 0.0 0.0 0.00 0.00 0.00 91 1012.2
20240418020053 59 111 0.0 0.0 0.00 0.00 0.00 92 1012.5
20240418014551 59 111 0.0 0.0 0.00 0.00 0.00 92 1012.4
20240418013047 59 111 0.0 0.0 0.00 0.00 0.00 92 1012.3
20240418011546 58 111 0.0 0.0 0.00 0.00 0.00 92 1012.3
20240418010046 58 111 0.0 0.0 0.00 0.00 0.00 92 1011.9
20240418004547 58 111 0.0 3.5 0.00 0.00 0.00 92 1011.5
20240418003045 58 120 0.9 2.6 0.00 0.00 0.00 91 1011.4
20240418001542 58 116 0.9 3.5 0.00 0.00 0.00 91 1011.4
20240418000041 58 134 1.7 6.1 0.00 0.00 0.00 90 1011.5
20240417234540 58 108 0.9 3.5 0.00 0.00 0.00 90 1011.9
20240417233042 58 125 0.9 3.5 0.00 0.00 0.00 90 1012.0
20240417231538 58 134 1.7 7.0 0.00 0.00 0.00 89 1011.8
20240417230047 58 99 2.6 9.6 0.00 0.00 0.00 88 1012.2
20240417224547 58 99 1.7 9.6 0.00 0.00 0.00 87 1012.2
20240417223036 58 144 3.5 7.0 0.00 0.00 0.00 85 1011.9
20240417221533 59 101 1.7 7.0 0.00 0.00 0.00 84 1013.0
20240417220032 59 122 2.6 8.7 0.00 0.00 0.00 83 1013.2
20240417214531 59 112 1.7 6.1 0.00 0.00 0.00 81 1013.8
20240417213030 59 124 2.6 7.8 0.00 0.00 0.00 81 1013.4
20240417211530 59 148 1.7 9.6 0.00 0.00 0.00 81 1013.6
20240417210029 60 123 2.6 8.7 0.00 0.00 0.00 81 1013.7
20240417204531 61 133 2.6 10.4 0.00 0.00 0.00 80 1013.8
20240417203025 62 142 3.5 8.7 0.00 0.00 0.00 80 1014.3
20240417201527 62 118 3.5 7.0 0.00 0.00 0.00 79 1014.4
20240417200025 64 59 4.3 11.3 0.00 0.00 0.00 78 1014.1
20240417194529 64 134 4.3 9.6 0.00 0.00 0.00 77 1014.6
20240417193033 64 130 2.6 10.4 0.00 0.00 0.00 76 1014.9
20240417191519 65 131 4.3 9.6 0.00 0.00 0.00 74 1014.9
20240417190016 68 80 0.9 7.0 0.00 0.00 0.00 74 1015.2
20240417184514 69 121 1.7 6.1 0.00 0.00 0.00 73 1015.7
20240417183013 70 100 1.7 5.2 0.00 0.00 0.00 72 1015.8
20240417181512 70 129 0.9 3.5 0.00 0.00 0.00 70 1016.0
20240417180014 70 74 0.9 2.6 0.00 0.00 0.00 70 1016.0
20240417174513 70 73 0.0 0.9 0.00 0.00 0.00 70 1016.3
20240417173008 70 73 0.0 2.6 0.00 0.00 0.00 69 1016.5